Temperature
18 17 17 17 17 17 17 17 17 17 17 17 17 17 17 17 17 17 17 17 17 17 17 17 16 16 16 16 16 16 16 16 16 16 16 16 16 16 16 16 16 16 15
17 17 17 17 17 17 17 17 17 17 17 17 17 17 17 17 17 17 17 17 17 17 16 16 16 16 16 16 16 16 16 16 16 16 16 16 16 16 16 16 15 15 15
17 17 17 17 17 16 16 17 17 17 17 17 17 17 17 17 17 17 16 16 16 16 16 16 16 16 16 16 16 16 16 16 16 16 16 16 16 16 16 16 16 15 15
17 17 17 16 16 16 16 16 16 16 16 16 16 16 16 16 16 16 16 16 16 16 16 16 16 16 16 16 16 16 16 16 16 16 16 16 16 15 15 15 15 15 15
17 16 16 16 16 16 16 16 16 16 16 16 16 16 16 16 16 16 16 16 16 16 16 16 16 16 16 16 16 15 15 15 15 15 15 15 15 15 15 15 15 15 15
17 16 16 16 16 16 16 16 16 16 16 16 16 16 16 16 16 16 16 16 16 16 16 16 15 15 15 15 15 15 15 15 15 15 15 15 15 15 15 15 15 15 15
16 16 16 16 16 16 16 16 16 16 16 16 16 16 16 16 16 16 16 16 16 16 16 15 15 15 15 15 15 15 15 15 15 15 15 15 15 15 15 15 15 15 15
16 16 16 16 16 16 16 16 15 15 16 16 15 16 15 15 16 16 16 16 16 16 15 15 15 15 15 15 15 15 15 15 15 15 15 15 15 15 15 15 15 15 15
16 16 16 16 16 15 15 15 15 15 15 15 15 16 16 16 15 15 16 16 16 15 15 15 15 15 15 15 15 15 15 14 14 14 14 14 14 14 14 14 14 15 15
16 16 16 16 15 15 15 15 15 15 15 15 15 15 16 16 16 15 15 15 15 15 15 15 15 15 15 15 14 14 14 14 14 14 14 14 14 14 14 14 14 14 14
16 16 16 15 15 15 15 15 15 15 15 15 15 15 15 15 15 15 15 15 15 15 15 15 15 15 15 14 14 14 14 14 14 14 14 14 14 14 14 14 14 14 14
16 16 15 15 15 15 15 15 15 15 15 15 15 15 15 15 15 15 15 15 15 15 15 15 15 15 14 14 14 14 14 14 14 14 13 13 13 13 13 14 14 14 14
16 16 15 15 15 15 15 15 15 15 15 15 15 15 15 15 15 15 15 15 15 15 14 14 14 14 14 14 14 14 14 13 13 13 13 13 13 13 13 13 13 13 13
16 16 15 15 15 15 15 14 14 14 14 14 14 14 14 14 14 14 14 14 14 14 14 14 14 14 14 14 14 14 13 13 13 13 13 13 13 13 13 13 13 13 13
16 15 15 15 15 15 15 14 14 14 14 14 14 14 14 14 14 14 14 14 14 14 14 14 14 14 14 14 13 13 13 13 13 13 13 13 12 12 12 12 12 13 13
16 16 15 15 15 15 15 14 14 14 14 14 14 14 14 14 14 14 14 14 14 13 13 14 13 13 13 13 13 13 13 13 13 13 13 12 12 12 12 12 12 12 12
16 16 16 15 15 15 15 14 14 14 14 14 14 14 14 13 13 13 13 13 13 13 13 13 13 13 13 13 13 13 13 13 13 13 12 12 12 12 12 12 12 12 12
16 16 16 15 15 15 15 14 14 14 14 14 14 14 13 13 13 13 13 13 13 13 13 13 13 13 13 13 13 13 13 13 13 12 12 12 12 12 12 12 12 12 12
16 16 16 15 15 15 15 15 14 14 14 14 14 14 14 13 13 13 13 13 13 13 13 13 13 13 13 13 13 13 13 13 13 12 12 12 12 12 12 12 12 12 12
16 16 16 16 15 15 15 15 14 14 14 14 14 14 14 14 13 13 13 13 13 13 13 13 13 13 13 13 13 13 13 13 13 13 12 12 12 12 12 12 12 12 12
16 16 16 16 15 15 15 15 14 14 14 14 14 14 14 13 13 13 13 13 13 13 13 13 13 13 13 13 13 12 12 13 13 13 13 13 12 12 12 12 12 12 12
16 16 16 16 15 15 15 15 15 14 14 14 14 14 14 13 13 13 13 13 13 13 13 13 13 13 13 13 13 12 12 12 12 13 12 12 12 12 12 12 12 12 12
16 16 16 16 15 15 15 15 14 14 14 14 14 14 14 14 14 13 13 13 13 13 13 13 13 13 13 13 12 12 12 12 12 12 12 12 12 12 12 12 12 12 12
16 16 16 16 15 15 15 15 14 14 14 14 14 14 14 14 14 13 13 13 13 13 13 12 12 13 12 12 12 12 12 12 12 12 11 11 12 12 12 12 12 12 12
16 16 16 16 15 15 15 15 14 14 14 14 14 14 14 14 13 13 13 13 13 13 13 12 12 12 12 12 12 11 11 11 11 12 12 11 12 12 12 12 12 12 12
16 16 16 16 15 15 15 14 14 14 14 14 14 14 14 13 13 13 12 12 13 13 13 12 12 12 12 12 12 11 11 11 11 11 12 11 11 11 11 11 12 12 11
Wind_Speed
4 5 4 4 4 4 4 4 4 4 4 4 3 3 2 3 4 4 3 6 8 9 8 8 9 9 9 9 9 9 9 9 9 9 9 9 9 9 8 8 8 8 8
6 5 4 4 3 3 3 4 4 4 3 2 3 3 2 2 2 3 2 4 6 8 8 8 7 8 9 9 9 9 9 10 10 10 10 10 9 9 9 9 8 8 8
9 7 4 3 3 4 4 4 4 4 2 2 2 2 2 1 1 1 2 2 3 6 7 7 6 7 8 8 9 9 10 10 11 11 11 11 11 11 11 10 10 10 9
10 8 4 3 5 5 4 3 2 3 2 2 1 2 2 1 0 1 1 2 2 3 4 5 6 7 7 8 9 9 10 11 11 12 12 12 12 12 12 12 12 12 12
11 8 5 5 6 5 3 2 2 2 2 1 1 2 2 2 1 0 0 1 2 3 3 4 5 6 6 6 7 8 8 10 11 12 12 12 12 13 13 13 13 14 13
11 9 6 6 6 4 3 3 3 2 2 1 2 3 3 2 2 1 0 0 1 2 3 3 3 4 4 5 5 5 6 7 8 10 11 11 12 13 14 14 15 15 15
11 9 6 5 5 4 4 4 3 3 2 1 2 3 3 4 4 3 2 2 1 1 1 1 1 1 1 2 3 3 4 4 6 7 9 10 11 13 14 14 15 16 16
10 9 7 5 5 4 4 3 3 3 2 2 2 3 2 3 3 4 3 2 2 2 1 1 1 1 0 0 1 1 2 2 2 4 5 7 8 10 12 13 13 15 16
10 9 9 7 6 5 5 4 4 4 3 2 1 3 3 3 1 2 3 3 2 1 1 2 2 1 0 1 0 1 1 1 1 2 3 4 5 7 9 10 11 12 13
9 10 9 8 6 5 5 4 3 3 4 2 1 2 1 3 3 1 2 2 3 2 2 1 1 1 0 1 1 1 0 1 0 1 2 3 3 4 6 7 8 10 12
6 8 9 8 6 5 5 4 4 3 3 3 3 2 2 2 2 2 1 2 2 2 2 2 1 1 1 1 2 1 1 1 0 1 2 2 3 4 5 6 7 9 10
3 5 8 7 6 5 5 4 4 5 3 3 3 2 3 2 2 2 2 1 1 2 2 2 1 1 1 2 2 2 2 2 2 2 2 3 3 4 5 5 6 6 8
3 5 6 6 5 5 6 5 4 4 4 4 4 2 2 2 2 3 3 2 0 1 2 2 2 2 1 1 2 2 3 3 4 4 4 5 6 6 7 7 7 7 8
5 6 6 7 7 7 6 5 4 4 3 4 4 3 2 2 2 3 3 3 2 1 1 2 2 2 2 1 2 3 4 5 6 7 7 8 8 9 9 10 10 10 9
5 7 7 7 6 7 6 6 4 4 4 4 4 4 2 2 2 2 3 3 4 2 2 2 2 2 2 2 3 3 5 7 8 9 9 10 10 11 11 12 12 12 12
6 8 7 7 7 6 6 5 4 4 5 4 3 4 3 2 2 2 2 2 2 3 3 2 2 2 3 3 3 4 6 7 8 9 10 10 10 11 11 12 12 13 13
8 9 9 8 8 7 7 6 5 6 6 5 4 5 4 4 3 3 2 3 3 3 3 3 2 2 2 3 4 4 5 6 7 9 9 9 10 10 11 11 12 13 13
9 9 9 9 8 8 7 8 8 7 7 7 6 6 5 4 4 3 3 4 4 4 4 4 2 2 3 3 3 4 4 5 6 8 9 9 10 10 10 11 11 12 13
8 8 9 10 9 9 9 8 8 8 8 8 7 8 7 6 6 5 5 5 4 4 4 4 3 2 3 2 3 3 4 4 6 8 9 10 10 11 11 11 12 12 13
9 9 10 10 9 9 9 9 8 8 8 8 8 8 8 8 8 8 6 6 5 5 4 4 4 4 4 3 2 3 4 3 4 6 8 9 10 11 12 13 13 14 14
10 9 9 9 8 8 9 9 9 9 9 8 8 8 9 10 11 9 7 7 7 6 5 5 5 4 4 4 4 3 4 5 5 4 4 5 6 7 10 12 14 15 15
8 8 10 10 9 9 11 13 11 9 9 9 9 8 8 10 12 13 13 12 10 9 8 6 6 7 8 6 5 5 4 4 5 3 3 5 4 7 10 11 14 17 17
9 9 9 9 9 9 11 12 14 10 9 9 9 8 8 8 10 9 11 13 13 15 13 9 10 10 9 8 6 6 6 7 7 5 3 7 6 9 10 13 17 19 19
9 9 9 9 9 9 11 12 13 10 9 9 9 9 9 9 8 9 8 9 9 10 12 11 11 11 11 9 8 8 8 7 8 7 6 7 8 8 9 11 16 19 20
8 8 7 8 9 9 11 12 11 7 8 9 9 9 9 9 10 10 8 9 9 9 11 15 16 16 16 15 11 6 6 6 8 7 6 6 6 7 7 9 12 16 17
8 8 7 8 9 8 9 11 11 7 8 8 7 8 11 11 10 10 9 9 10 10 7 7 8 11 12 13 13 11 10 9 9 7 6 6 6 5 6 5 6 8 10
Wind_Direction
146 139 132 129 127 123 112 99 90 80 65 52 63 87 114 126 153 166 185 196 195 193 191 190 191 193 193 194 193 191 192 191 188 189 188 184 182 180 178 176 173 170 168
156 146 139 137 136 135 123 111 101 92 78 62 55 66 92 112 142 169 189 204 205 203 202 202 203 205 203 205 205 202 205 205 202 201 201 199 196 194 192 190 188 186 183
162 152 144 148 150 140 123 103 90 83 79 64 48 45 63 58 132 185 201 224 224 220 215 214 219 222 219 220 220 217 215 216 214 211 210 211 209 207 204 202 200 199 198
165 153 148 154 152 138 124 109 93 83 66 62 49 30 32 19 346 241 215 221 222 227 227 230 235 237 236 235 236 228 224 221 221 219 218 218 219 218 215 213 211 209 208
165 157 156 158 153 136 125 127 90 100 93 76 72 54 35 30 5 358 215 226 218 224 235 248 251 252 250 249 249 242 233 227 223 222 222 224 227 226 224 223 221 219 217
165 159 157 158 153 136 126 113 103 80 83 91 78 60 38 29 35 34 6 47 232 235 231 238 252 258 258 256 257 252 243 238 230 227 228 229 230 231 231 230 228 225 224
166 162 159 155 152 148 149 139 117 97 67 64 83 47 25 33 43 34 39 55 35 24 145 177 194 215 258 258 260 258 249 243 235 230 232 234 236 236 236 234 233 230 228
165 168 161 161 156 144 141 144 134 122 83 63 113 99 45 10 11 21 27 46 32 39 63 86 104 117 122 347 278 263 243 243 240 228 229 235 239 242 243 241 240 237 235
166 163 162 157 158 156 160 163 154 140 134 73 77 136 144 195 309 354 15 24 17 26 17 30 46 60 141 173 337 339 274 234 246 245 246 248 249 251 247 244 244 244 240
162 159 157 157 156 155 157 165 158 146 141 145 100 67 108 144 143 91 352 4 16 28 14 7 2 2 21 189 215 249 188 155 24 324 274 258 259 264 261 255 255 254 249
152 156 156 155 153 154 155 151 146 148 150 154 153 139 106 78 91 135 155 340 0 8 11 358 331 312 282 234 215 214 186 160 45 351 322 288 283 289 282 274 269 267 264
142 153 157 156 155 154 157 158 155 152 152 146 147 149 153 150 156 143 151 182 314 327 341 346 349 309 274 242 235 244 241 251 284 312 321 312 306 308 301 293 291 287 281
162 170 158 157 159 163 162 158 157 158 158 153 154 157 162 161 150 145 140 149 178 322 328 330 332 321 289 250 262 258 256 265 277 281 286 289 290 289 290 289 289 291 291
171 166 164 165 164 164 162 159 159 166 162 159 160 155 151 160 161 159 154 148 141 342 331 304 317 311 314 276 268 261 267 273 278 282 285 286 285 284 283 283 283 282 283
167 165 166 168 168 166 163 161 169 171 163 167 168 165 159 167 171 168 158 158 156 178 244 275 283 302 306 288 285 270 271 280 283 285 285 285 283 283 282 281 280 279 277
168 166 171 173 171 169 168 167 169 170 166 172 173 170 173 175 170 167 168 168 166 170 209 241 251 277 296 297 290 275 273 281 284 285 285 284 285 286 285 283 281 279 276
175 178 179 178 179 178 174 175 181 176 179 184 184 186 194 182 179 177 172 172 176 171 204 249 250 266 271 276 295 295 285 281 286 287 284 282 281 284 285 283 281 279 276
183 183 180 182 187 186 182 187 192 189 191 195 198 195 203 192 190 190 187 194 197 196 201 234 251 253 254 264 274 284 288 282 280 286 284 280 281 283 284 284 283 281 277
185 184 184 190 193 192 191 196 196 196 200 204 201 202 207 196 205 204 202 207 208 204 206 222 247 247 258 264 272 275 275 277 281 280 279 277 278 279 281 281 281 280 277
188 191 195 198 199 197 197 198 199 204 208 212 210 210 211 207 213 211 211 214 210 206 206 223 245 256 259 258 251 267 281 274 280 284 278 277 275 277 278 278 279 278 276
197 195 195 200 200 199 205 202 204 209 212 219 222 222 223 221 219 214 215 215 208 213 216 226 242 253 258 252 250 245 265 282 278 261 273 274 274 276 279 279 277 275 274
195 192 198 201 203 211 211 205 203 210 212 218 226 231 232 233 231 225 223 217 206 211 221 226 240 246 256 252 250 245 256 274 282 247 243 272 265 271 274 272 271 272 272
195 199 203 202 209 216 213 211 210 210 216 221 225 230 237 235 226 232 233 232 227 225 219 223 239 246 252 248 242 252 244 246 258 257 244 278 270 270 273 270 268 267 267
195 201 204 205 211 222 216 216 214 214 223 227 226 225 231 238 231 224 231 237 239 238 232 232 238 245 247 247 238 248 258 260 261 256 228 263 274 271 275 273 269 266 265
197 202 202 205 214 227 218 216 209 214 227 235 234 231 230 237 238 226 228 241 251 254 245 237 238 245 251 251 243 245 250 253 270 269 214 232 265 273 275 273 271 266 263
200 199 206 210 217 228 224 216 206 214 229 239 241 238 232 233 239 226 227 236 249 256 257 257 251 255 257 257 242 232 240 249 260 269 232 213 252 259 274 261 263 266 266
Height
1558 1559 1561 1563 1564 1565 1567 1568 1569 1570 1572 1573 1574 1575 1576 1576 1577 1578 1579 1580 1581 1582 1583 1584 1585 1586 1587 1588 1589 1590 1591 1592 1593 1594 1595 1596 1597 1598 1599 1600 1601 1602 1602
1558 1560 1561 1563 1565 1566 1567 1568 1569 1570 1571 1572 1573 1574 1575 1576 1577 1578 1579 1580 1581 1582 1583 1584 1585 1585 1586 1587 1589 1590 1591 1592 1593 1594 1595 1596 1597 1598 1599 1600 1601 1602 1602
1558 1560 1562 1563 1564 1566 1567 1568 1569 1570 1571 1572 1573 1574 1575 1576 1577 1578 1579 1580 1581 1582 1582 1583 1584 1585 1586 1587 1588 1589 1590 1591 1592 1593 1594 1595 1596 1597 1598 1599 1600 1601 1602
1557 1559 1561 1563 1564 1565 1566 1567 1568 1570 1571 1572 1573 1573 1574 1576 1577 1578 1579 1579 1580 1581 1582 1583 1583 1584 1585 1586 1587 1588 1589 1590 1591 1592 1593 1594 1595 1596 1597 1598 1599 1600 1601
1556 1558 1560 1562 1563 1565 1566 1567 1568 1569 1570 1571 1572 1573 1574 1575 1576 1577 1578 1579 1580 1581 1581 1582 1583 1583 1584 1585 1585 1586 1587 1588 1589 1590 1591 1592 1593 1594 1595 1596 1597 1598 1599
1555 1557 1559 1561 1562 1564 1565 1566 1567 1569 1570 1571 1572 1573 1574 1575 1576 1576 1577 1578 1579 1580 1581 1581 1582 1582 1583 1584 1584 1585 1585 1586 1587 1588 1589 1590 1591 1592 1593 1594 1595 1596 1597
1554 1556 1558 1560 1562 1563 1565 1566 1567 1568 1569 1570 1571 1572 1573 1574 1575 1576 1577 1578 1578 1579 1580 1581 1581 1581 1582 1583 1583 1583 1584 1584 1585 1586 1586 1587 1588 1589 1590 1591 1592 1593 1594
1553 1555 1557 1559 1561 1562 1564 1565 1566 1567 1568 1570 1571 1572 1573 1575 1575 1575 1576 1577 1578 1579 1579 1580 1580 1581 1581 1581 1582 1582 1582 1583 1583 1583 1584 1584 1585 1586 1587 1588 1589 1590 1591
1551 1553 1556 1558 1560 1561 1563 1564 1565 1566 1567 1569 1570 1571 1572 1573 1574 1575 1575 1576 1577 1578 1579 1579 1579 1580 1580 1580 1580 1581 1581 1581 1581 1581 1581 1582 1582 1583 1584 1584 1585 1586 1587
1550 1552 1554 1556 1558 1560 1562 1563 1564 1565 1566 1567 1568 1569 1571 1571 1573 1574 1575 1575 1576 1577 1578 1578 1578 1579 1579 1579 1579 1579 1579 1579 1579 1579 1579 1579 1579 1580 1580 1581 1581 1582 1583
1549 1551 1553 1555 1557 1559 1560 1561 1562 1564 1565 1566 1567 1568 1569 1570 1571 1572 1573 1574 1575 1576 1576 1577 1577 1577 1577 1577 1578 1578 1578 1578 1578 1577 1577 1577 1577 1577 1577 1577 1577 1578 1578
1547 1549 1552 1554 1556 1557 1559 1560 1561 1562 1563 1564 1565 1566 1567 1568 1569 1570 1571 1572 1573 1574 1575 1575 1575 1576 1576 1576 1576 1576 1576 1576 1576 1576 1575 1575 1574 1574 1573 1573 1573 1574 1574
1546 1548 1550 1552 1554 1556 1557 1558 1559 1560 1561 1562 1563 1564 1566 1567 1568 1569 1570 1571 1571 1572 1573 1573 1573 1574 1574 1574 1574 1574 1574 1574 1574 1574 1573 1572 1572 1571 1571 1570 1570 1570 1570
1545 1547 1549 1551 1553 1554 1556 1557 1558 1559 1560 1560 1561 1563 1564 1565 1566 1567 1568 1569 1569 1570 1570 1571 1571 1572 1572 1572 1572 1572 1572 1572 1572 1571 1571 1570 1569 1568 1568 1567 1567 1566 1566
1543 1546 1548 1550 1551 1553 1554 1555 1556 1557 1558 1559 1560 1561 1562 1563 1564 1565 1566 1567 1568 1568 1568 1569 1569 1570 1570 1570 1570 1570 1570 1569 1569 1568 1567 1567 1566 1565 1564 1564 1563 1563 1562
1541 1544 1546 1547 1549 1551 1552 1553 1554 1555 1556 1557 1558 1559 1560 1561 1562 1563 1564 1564 1565 1566 1566 1566 1566 1567 1567 1567 1567 1567 1567 1566 1565 1565 1564 1563 1562 1562 1561 1560 1560 1559 1558
1539 1542 1544 1545 1547 1549 1550 1551 1552 1553 1554 1555 1556 1557 1558 1559 1560 1561 1561 1562 1562 1563 1563 1563 1563 1564 1564 1564 1564 1563 1563 1562 1562 1561 1560 1559 1558 1558 1557 1556 1556 1555 1554
1537 1539 1541 1543 1545 1546 1548 1549 1550 1551 1552 1553 1554 1555 1556 1557 1557 1558 1558 1559 1560 1560 1560 1560 1560 1560 1560 1560 1560 1560 1559 1558 1557 1557 1556 1555 1554 1554 1553 1552 1551 1550 1549
1534 1536 1538 1540 1542 1544 1545 1546 1547 1548 1549 1550 1551 1552 1553 1554 1554 1555 1555 1556 1557 1557 1557 1556 1556 1556 1556 1556 1556 1555 1555 1554 1553 1552 1551 1551 1550 1549 1548 1547 1546 1545 1544
1530 1533 1535 1537 1539 1540 1542 1543 1544 1545 1546 1547 1548 1549 1549 1550 1551 1551 1552 1552 1553 1553 1553 1552 1552 1552 1552 1552 1551 1550 1550 1549 1548 1547 1546 1545 1544 1543 1542 1541 1540 1539 1538
1526 1529 1531 1533 1535 1537 1538 1539 1541 1542 1542 1543 1544 1545 1545 1546 1547 1548 1548 1549 1549 1549 1549 1548 1548 1547 1547 1547 1546 1545 1544 1543 1542 1542 1541 1540 1539 1537 1537 1535 1534 1533 1532
1522 1525 1527 1529 1531 1532 1534 1535 1537 1537 1538 1539 1540 1541 1542 1542 1543 1543 1544 1544 1544 1544 1544 1544 1543 1542 1542 1542 1541 1540 1539 1538 1536 1537 1535 1534 1533 1531 1530 1529 1528 1527 1526
1517 1519 1522 1524 1526 1528 1529 1531 1532 1533 1534 1535 1536 1536 1537 1538 1538 1539 1539 1539 1539 1539 1539 1539 1538 1537 1537 1537 1536 1535 1534 1532 1531 1530 1529 1526 1526 1525 1524 1522 1521 1520 1519
1512 1514 1516 1519 1520 1522 1524 1526 1527 1528 1528 1529 1530 1531 1532 1532 1533 1533 1533 1533 1533 1533 1533 1532 1532 1532 1532 1531 1530 1529 1528 1526 1524 1524 1523 1520 1519 1518 1517 1516 1515 1514 1512
1506 1509 1511 1513 1515 1517 1519 1521 1522 1522 1523 1523 1524 1525 1526 1526 1527 1527 1527 1526 1526 1526 1527 1526 1526 1525 1525 1525 1524 1523 1521 1519 1516 1516 1516 1513 1511 1510 1509 1508 1508 1507 1506
1501 1503 1505 1507 1509 1511 1513 1515 1516 1516 1516 1517 1518 1518 1519 1519 1520 1520 1520 1520 1519 1519 1520 1519 1518 1518 1518 1517 1517 1516 1514 1512 1509 1507 1507 1506 1504 1503 1499 1499 1500 1499 1498